This demonstration page uses our WeatherBlox Daily Observations layout. Learn more.

Left ArrowRight Arrow

41.55636, -103.73856

Hourly Observations for October 23, 2021

Temp ( °F °C ) Dew Point ( °F °C ) Humidity (%) Winds ( mph kmh ) Pressure ( in mb ) Visibility ( mi km ) Precip ( " mm )
12:58 am 00:58 Mostly Cloudy 48 8.9 34 1.1 58 58 ESE 7 11 29.78 1008 10 16 N/A
1:58 am 01:58 Mostly Clear 47 8.5 33 0.8 59 59 ESE 12 19 29.76 1008 10 16 N/A
2:58 am 02:58 Mostly Clear 46 7.5 33 0.4 61 61 NNW 5 7 29.75 1007 10 16 N/A
3:58 am 03:58 Mostly Cloudy 38 3.1 34 1.1 87 87 N N/A 29.74 1007 10 16 N/A
4:58 am 04:58 Mostly Cloudy 43 6.3 31 -0.3 63 63 N N/A 29.75 1007 10 16 N/A
5:58 am 05:58 Clear 43 6.3 32 0.2 65 65 N N/A 29.76 1008 10 16 N/A
6:58 am 06:58 Partly Cloudy 41 5 32 0.1 71 71 N N/A 29.76 1008 10 16 N/A
7:58 am 07:58 Mostly Sunny 37 2.6 31 -0.4 81 81 SW 5 7 29.78 1009 10 16 N/A
8:58 am 08:58 Sunny 43 6.3 34 1.2 70 70 N N/A 29.76 1008 10 16 N/A
9:58 am 09:58 Sunny 46 8 38 3.3 72 72 E 6 9 29.74 1007 10 16 N/A
10:58 am 10:58 Sunny 53 11.8 40 4.2 60 60 E 7 11 29.72 1007 10 16 N/A
11:58 am 11:58 Sunny 58 14.7 38 3.4 47 47 E 8 13 29.70 1006 10 16 N/A
12:58 pm 12:58 Sunny 64 17.6 39 3.8 40 40 E 5 7 29.65 1004 10 16 N/A
1:58 pm 13:58 Sunny 64 17.5 26 -3.1 24 24 SW 7 11 29.64 1004 10 16 N/A
2:58 pm 14:58 Mostly Sunny 64 17.5 23 -5 21 21 S 7 11 29.63 1003 10 16 N/A
3:58 pm 15:58 Mostly Sunny 63 17.4 26 -3.3 24 24 SSE 7 11 29.65 1004 10 16 N/A
4:58 pm 16:58 Mostly Cloudy 59 15.2 30 -1.1 33 33 SSE 8 13 29.66 1004 10 16 N/A
5:58 pm 17:58 Mostly Cloudy 56 13.3 34 1.3 44 44 WNW 7 11 29.69 1005 10 16 N/A
6:58 pm 18:58 Mostly Cloudy 51 10.5 39 3.8 64 64 N N/A 29.71 1006 10 16 N/A
7:58 pm 19:58 Cloudy 52 11.3 37 2.9 57 57 NW 8 13 29.75 1007 10 16 N/A
8:58 pm 20:58 Mostly Cloudy 49 9.5 38 3.6 67 67 S 10 17 29.75 1008 10 16 N/A
9:58 pm 21:58 Mostly Cloudy 53 11.4 37 2.5 55 55 N 10 17 29.73 1007 10 16 N/A
10:58 pm 22:58 Cloudy 51 10.7 38 3.1 60 60 N N/A 29.74 1007 10 16 N/A
11:58 pm 23:58 Mostly Cloudy 46 8 38 3.3 72 72 W 7 11 29.73 1007 10 16 N/A

Powered by AerisWeather